Location: Carabito
(9.8355°N, 67.9249°W)
Time: 01:53:20
(UTC+00:00)

Centaur AC-72 - Pass Details

Date: 23 May 2024
Orbit: 1164 x 35192 km, 19.0° (Epoch: 12 June)

Event Time Altitude Azimuth Distance (km) Brightness Sun altitude
Rises 00:27:45 0° 247° (WSW) 15,505 9.2 -23.5°
Reaches altitude 10° 00:40:28 10° 247° (WSW) 17,281 9.3 -26.2°
Drops below altitude 10° 06:18:47 10° 273° (W) 38,069 10.3 -49.2°
Maximum altitude 10:06:53 87° 13° (NNE) 2,040 4.3 -1.5°
Sets 10:15:40 0° 106° (ESE) 4,064 6.7 0.5°
